User: anonymous   Login
Location: Unspecified
(0.0000°N, 0.0000°E)
Time: 21:59:24
(UTC+00:00)
Language:

ISIS 1 - Orbit

View from above orbital plane
View from above orbital plane
View from above satellite
View from above satellite

Ground track
Ground track

The orbit data is extracted from the following two-line orbital elements,

1  3669U 69009A   17082.86820889 +.00000053 +00000-0 +33571-4 0  9996
2  3669 088.4424 157.7043 1711849 208.2098 141.4893 11.29434926979009
Epoch (UTC): 23 March 2017 20:50:13
Eccentricity: 0.1711849
inclination: 88.4424°
perigee height: 576 km
apogee height: 3449 km
right ascension of ascending node: 157.7043°
argument of perigee: 208.2098°
revolutions per day: 11.29434926
mean anomaly at epoch: 141.4893°
orbit number at epoch: 97900

The dashed part of the orbit path shows where the satellite is in the earth's shadow,  

DLR